This is the latest recevied weather packets stored in our database for station/object K1JO. If no packets are shown the sender has not sent any weather packets the latest 1 day(s).
| Time | Temp. | Humidity | Pressure | Rain* | Wind** | Luminosity | Snow |
|---|---|---|---|---|---|---|---|
| 1836274779 | 7.78° C | 74% | 1016.5 hPa | 0 mm | 0 m/s | 0 W/m² | - |
| 1836274477 | 6.67° C | 82% | 1016.5 hPa | 0 mm | 0.45 m/s, 176° | 0 W/m² | - |
| 1836274331 | 7.78° C | 77% | 1016.7 hPa | 0 mm | 0 m/s | 0 W/m² | - |
| 1836274174 | 6.67° C | 82% | 1016.5 hPa | 0 mm | 0 m/s | 0 W/m² | - |
| 1836273869 | 6.67° C | 82% | 1016.6 hPa | 0 mm | 0 m/s | 0 W/m² | - |
| 1778041321 | 12.22° C | 84% | 1004.2 hPa | 0 mm | 1.34 m/s, 293° | 0 W/m² | - |
| 1778041019 | 12.22° C | 84% | 1004 hPa | 0 mm | 0.89 m/s, 164° | 0 W/m² | - |
| 1778040715 | 12.78° C | 84% | 1004.2 hPa | 0 mm | 0.45 m/s, 321° | 0 W/m² | - |
| 1778040413 | 12.78° C | 83% | 1004.3 hPa | 0 mm | 0.89 m/s, 266° | 0 W/m² | - |
| 1778040110 | 12.78° C | 83% | 1004.3 hPa | 0 mm | 0.45 m/s, 295° | 0 W/m² | - |
| 1778039807 | 12.78° C | 83% | 1004.5 hPa | 0 mm | 0.45 m/s, 226° | 0 W/m² | - |
| 1778039503 | 12.78° C | 82% | 1004.2 hPa | 0 mm | 1.34 m/s, 168° | 0 W/m² | - |
| 1778039200 | 12.78° C | 82% | 1004.4 hPa | 0 mm | 1.34 m/s, 179° | 0 W/m² | - |
| 1778038897 | 12.78° C | 83% | 1004.3 hPa | 0 mm | 0.45 m/s, 321° | 0 W/m² | - |
| 1778038595 | 12.78° C | 82% | 1004.4 hPa | 0 mm | 0.45 m/s, 286° | 0 W/m² | - |
| 1778038291 | 12.78° C | 82% | 1004.3 hPa | 0 mm | 0 m/s | 0 W/m² | - |
| 1778037988 | 12.78° C | 82% | 1004.4 hPa | 0 mm | 0.45 m/s, 323° | 0 W/m² | - |
| 1778037685 | 12.78° C | 82% | 1004.3 hPa | 0 mm | 0.45 m/s, 323° | 0 W/m² | - |
| 1778037382 | 12.78° C | 81% | 1004.1 hPa | 0 mm | 0.45 m/s, 339° | 0 W/m² | - |
| 1778037079 | 12.78° C | 81% | 1004.1 hPa | 0 mm | 0.45 m/s, 339° | 0 W/m² | - |
| 1778036778 | 12.78° C | 81% | 1004 hPa | 0 mm | 0.45 m/s, 339° | 0 W/m² | - |
| 1778036475 | 12.78° C | 81% | 1004.2 hPa | 0 mm | 0.45 m/s, 339° | 0 W/m² | - |
| 1778036172 | 12.78° C | 81% | 1004.3 hPa | 0 mm | 0.45 m/s, 339° | 0 W/m² | - |
| 1778035867 | 12.78° C | 81% | 1004.4 hPa | 0 mm | 0.45 m/s, 339° | 0 W/m² | - |
| 1778035565 | 12.78° C | 81% | 1004.5 hPa | 0 mm | 1.34 m/s, 269° | 0 W/m² | - |
* Rain latest hour (hover to see other rain measurements)
** Current wind speed in m/s (hover to see current wind gust speed)